TimeEST,TemperatureF,Dew PointF,Humidity,Sea Level PressureIn,VisibilityMPH,Wind Direction,Wind SpeedMPH,Gust SpeedMPH,PrecipitationIn,Events,Conditions,WindDirDegrees,DateUTC
12:15 AM,35.1,23.0,61,30.29,10.0,Calm,Calm,-,N/A,,Clear,0,2013-02-19 05:15:00
12:35 AM,34.2,23.7,66,30.29,10.0,Calm,Calm,-,N/A,,Clear,0,2013-02-19 05:35:00
12:55 AM,35.1,22.8,61,30.29,10.0,South,3.5,-,N/A,,Clear,180,2013-02-19 05:55:00
1:35 AM,32.5,23.7,70,30.26,10.0,SSE,4.6,-,N/A,,Clear,160,2013-02-19 06:35:00
1:55 AM,32.5,24.8,73,30.25,10.0,South,4.6,-,N/A,,Clear,170,2013-02-19 06:55:00
2:15 AM,32.5,24.8,73,30.24,10.0,South,3.5,-,N/A,,Clear,170,2013-02-19 07:15:00
2:35 AM,30.2,23.7,77,30.24,10.0,South,3.5,-,N/A,,Clear,170,2013-02-19 07:35:00
2:55 AM,32.0,24.4,74,30.24,10.0,Calm,Calm,-,N/A,,Clear,0,2013-02-19 07:55:00
3:15 AM,31.3,24.1,75,30.23,10.0,Calm,Calm,-,N/A,,Clear,0,2013-02-19 08:15:00
3:35 AM,30.2,25.2,82,30.22,10.0,Calm,Calm,-,N/A,,Clear,0,2013-02-19 08:35:00
3:55 AM,30.2,25.2,82,30.21,10.0,Calm,Calm,-,N/A,,Scattered Clouds,0,2013-02-19 08:55:00
4:15 AM,29.8,25.3,83,30.20,10.0,Calm,Calm,-,N/A,,Scattered Clouds,0,2013-02-19 09:15:00
4:35 AM,30.2,26.1,85,30.19,10.0,Calm,Calm,-,N/A,,Scattered Clouds,0,2013-02-19 09:35:00
4:55 AM,30.2,25.7,83,30.18,10.0,South,4.6,-,N/A,,Scattered Clouds,170,2013-02-19 09:55:00
5:15 AM,30.2,26.4,86,30.17,10.0,SSE,3.5,-,N/A,,Scattered Clouds,150,2013-02-19 10:15:00
5:35 AM,32.4,28.0,84,30.17,10.0,Calm,Calm,-,N/A,,Scattered Clouds,0,2013-02-19 10:35:00
5:55 AM,30.2,26.1,85,30.16,10.0,Calm,Calm,-,N/A,,Scattered Clouds,0,2013-02-19 10:55:00
6:15 AM,30.2,26.4,86,30.15,10.0,Calm,Calm,-,N/A,,Clear,0,2013-02-19 11:15:00
6:35 AM,30.2,26.6,86,30.14,10.0,Calm,Calm,-,N/A,,Clear,0,2013-02-19 11:35:00
6:55 AM,30.2,26.6,86,30.15,10.0,Calm,Calm,-,N/A,,Clear,0,2013-02-19 11:55:00
7:15 AM,30.2,27.1,88,30.14,10.0,SSE,3.5,-,N/A,,Clear,160,2013-02-19 12:15:00
7:35 AM,32.5,29.7,89,30.14,10.0,South,3.5,-,N/A,,Clear,180,2013-02-19 12:35:00
7:55 AM,35.1,31.8,88,30.14,10.0,South,5.8,-,N/A,,Clear,170,2013-02-19 12:55:00
8:15 AM,37.8,32.9,83,30.13,10.0,South,5.8,-,N/A,,Scattered Clouds,170,2013-02-19 13:15:00
8:35 AM,40.1,35.1,82,30.12,10.0,South,4.6,-,N/A,,Scattered Clouds,170,2013-02-19 13:35:00
8:55 AM,45.1,39.4,80,30.11,10.0,South,5.8,-,N/A,,Scattered Clouds,170,2013-02-19 13:55:00
9:15 AM,45.1,39.2,80,30.10,10.0,SSE,5.8,-,N/A,,Clear,160,2013-02-19 14:15:00
9:35 AM,46.4,39.7,78,30.09,10.0,South,5.8,-,N/A,,Clear,170,2013-02-19 14:35:00
10:15 AM,50.0,42.1,74,30.08,10.0,South,8.1,-,N/A,,Clear,170,2013-02-19 15:15:00
10:35 AM,52.7,42.4,68,30.07,10.0,South,6.9,19.6,N/A,,Scattered Clouds,190,2013-02-19 15:35:00
10:55 AM,55.0,43.0,64,30.06,10.0,SSW,12.7,23.0,N/A,,Scattered Clouds,200,2013-02-19 15:55:00
11:15 AM,55.0,43.2,64,30.04,10.0,South,11.5,19.6,N/A,,Scattered Clouds,180,2013-02-19 16:15:00
11:35 AM,55.0,43.9,66,30.02,10.0,South,12.7,18.4,N/A,,Scattered Clouds,180,2013-02-19 16:35:00
11:55 AM,56.3,44.1,64,30.01,10.0,South,10.4,-,N/A,,Clear,190,2013-02-19 16:55:00
12:15 PM,56.3,43.5,62,29.99,10.0,South,10.4,-,N/A,,Mostly Cloudy,180,2013-02-19 17:15:00
12:35 PM,54.3,45.1,71,29.98,10.0,South,10.4,16.1,N/A,Rain,Light Rain,190,2013-02-19 17:35:00
12:55 PM,52.7,47.5,82,29.98,10.0,SSW,3.5,-,0.01,Rain,Rain,210,2013-02-19 17:55:00
1:15 PM,52.7,48.2,85,29.98,10.0,SSW,4.6,-,0.01,Rain,Light Rain,210,2013-02-19 18:15:00
1:35 PM,52.7,48.4,85,29.96,10.0,SSW,8.1,-,0.01,Rain,Light Rain,200,2013-02-19 18:35:00
1:55 PM,52.7,48.2,85,29.93,10.0,South,4.6,-,0.02,Rain,Light Rain,190,2013-02-19 18:55:00
2:15 PM,53.2,48.2,83,29.91,10.0,SSW,5.8,-,N/A,Rain,Light Rain,200,2013-02-19 19:15:00
2:35 PM,55.0,49.6,82,29.89,10.0,SSW,4.6,-,N/A,Rain,Light Rain,210,2013-02-19 19:35:00
2:55 PM,55.0,49.1,80,29.88,10.0,SSW,8.1,-,N/A,,Scattered Clouds,210,2013-02-19 19:55:00
3:15 PM,55.0,48.6,79,29.87,10.0,SSW,6.9,16.1,N/A,,Mostly Cloudy,200,2013-02-19 20:15:00
3:35 PM,54.9,48.4,79,29.88,10.0,SSW,6.9,-,N/A,,Overcast,210,2013-02-19 20:35:00
4:15 PM,55.0,48.4,78,29.85,10.0,SSW,8.1,20.7,N/A,,Overcast,200,2013-02-19 21:15:00
4:35 PM,55.0,47.8,77,29.84,10.0,SSW,10.4,24.2,N/A,,Overcast,210,2013-02-19 21:35:00
4:55 PM,55.0,48.6,79,29.83,10.0,SSW,10.4,24.2,N/A,,Overcast,210,2013-02-19 21:55:00
5:15 PM,55.0,48.6,79,29.83,10.0,SSW,9.2,17.3,N/A,,Overcast,210,2013-02-19 22:15:00
5:35 PM,55.0,49.3,81,29.84,10.0,SW,8.1,18.4,N/A,,Overcast,220,2013-02-19 22:35:00
5:55 PM,52.7,48.2,85,29.84,7.0,SSW,4.6,-,N/A,,Drizzle,210,2013-02-19 22:55:00
6:15 PM,52.7,49.1,88,29.85,7.0,SW,5.8,-,N/A,Rain,Rain,220,2013-02-19 23:15:00
7:55 PM,50.0,45.9,86,29.89,10.0,WSW,3.5,-,0.01,,Scattered Clouds,240,2013-02-20 00:55:00
8:15 PM,50.0,45.7,85,29.90,10.0,Calm,Calm,-,N/A,,Scattered Clouds,0,2013-02-20 01:15:00
8:35 PM,49.3,45.3,86,29.90,10.0,Calm,Calm,-,N/A,,Scattered Clouds,0,2013-02-20 01:35:00
8:55 PM,47.5,43.5,86,29.91,10.0,Calm,Calm,-,N/A,,Clear,0,2013-02-20 01:55:00
9:15 PM,45.9,41.9,86,29.91,10.0,Calm,Calm,-,N/A,,Clear,0,2013-02-20 02:15:00
9:35 PM,45.1,41.4,87,29.92,10.0,Calm,Calm,-,N/A,,Clear,0,2013-02-20 02:35:00
9:55 PM,45.1,41.7,88,29.92,10.0,Calm,Calm,-,N/A,,Clear,0,2013-02-20 02:55:00
10:15 PM,45.1,41.4,87,29.92,10.0,Calm,Calm,-,N/A,,Clear,0,2013-02-20 03:15:00
10:35 PM,45.1,41.2,86,29.92,10.0,Calm,Calm,-,N/A,,Clear,0,2013-02-20 03:35:00
10:55 PM,45.1,41.4,87,29.92,10.0,Calm,Calm,-,N/A,,Clear,0,2013-02-20 03:55:00
11:15 PM,45.1,41.0,85,29.92,10.0,Calm,Calm,-,N/A,,Clear,0,2013-02-20 04:15:00
11:35 PM,45.1,41.0,85,29.92,10.0,Calm,Calm,-,N/A,,Clear,0,2013-02-20 04:35:00
11:55 PM,45.1,41.0,85,29.92,10.0,Calm,Calm,-,N/A,,Clear,0,2013-02-20 04:55:00